New Orleans, LA

10:43 PM CDT on August 23, 2016 (GMT -0500)
New Orleans Naval Air Station

Weather History for KNBG - May, 2013

Change the Weather History Date:

Tuesday, May 21, 2013

  Actual Average Record
Temperature  
Mean Temperature 81 °F -  
Max Temperature 87 °F 83 °F 91 °F (2005)
Min Temperature 75 °F 66 °F 55 °F (2002)
Cooling Degree Days 16    
Growing Degree Days 31 (Base 50)    
Moisture  
Dew Point 71 °F    
Average Humidity 72    
Maximum Humidity 89    
Minimum Humidity 57    
Precipitation  
Precipitation 0.00 in - - ()
Sea Level Pressure  
Sea Level Pressure 29.94 in    
Wind  
Wind Speed 6 mph (South)    
Max Wind Speed 13 mph    
Max Gust Speed 20 mph    
Visibility 9 miles    
Events      
Averages and records for this station are not official NWS values.
T = Trace of Precipitation, MM = Missing Value Source: NWS Daily Summary

Daily Weather History Graph

Daily Weather History Graph

Search for Another Location

Airport or City:

Trip Planner

Search our weather history database for the weather conditions in past years. The results will help you decide how hot, cold, wet, or windy it might be!

Date:

Astronomy

May. 21, 2013 Rise Set
Actual Time 6:03 AM CDT 7:50 PM CDT
Civil Twilight 5:37 AM CDT 8:16 PM CDT
Nautical Twilight 5:05 AM CDT 8:48 PM CDT
Astronomical Twilight 4:31 AM CDT 9:22 PM CDT
Moon 4:18 PM CDT (5/21) 3:14 AM CDT (5/21)
Length of Visible Light 14h 39m
Length of Day
13h 46m
Waxing Gibbous, 84% of the Moon is Illuminated
May 21
Waxing Gibbous
May 24
Full
May 31
Last Quarter
Jun 8
New
Jun 16
First Quarter

Hourly Weather History & Observations

Time (CDT) Temp. Heat Index Dew Point Humidity Pressure Visibility Wind Dir Wind Speed Gust Speed Precip Events Conditions
12:55 AM 77.0 °F - 73.0 °F 88% 29.97 in 10.0 mi North - - N/A   Unknown
1:55 AM 77.0 °F - 73.0 °F 88% 29.95 in 10.0 mi North - - N/A   Unknown
2:55 AM 75.9 °F - 72.0 °F 87% 29.95 in 10.0 mi North - - N/A   Unknown
3:55 AM 75.9 °F - 72.0 °F 87% 29.93 in 10.0 mi North - - N/A   Unknown
5:55 AM 75.9 °F - 72.0 °F 87% 29.95 in 10.0 mi North - - N/A   Unknown
6:11 AM 75.2 °F - 71.6 °F 89% 29.95 in 7.0 mi Calm Calm - N/A   Mostly Cloudy
6:55 AM 77.0 °F - 72.0 °F 84% 29.96 in 5.0 mi Calm Calm - N/A   Haze
7:55 AM 79.0 °F - 72.0 °F 79% 29.97 in 7.0 mi South 8.1 mph - N/A   Mostly Cloudy
8:55 AM 81.0 °F 84.4 °F 70.0 °F 69% 29.98 in 7.0 mi South 8.1 mph - N/A   Mostly Cloudy
9:55 AM 82.9 °F 87.0 °F 70.0 °F 65% 29.97 in 7.0 mi South 8.1 mph - N/A   Mostly Cloudy
10:55 AM 84.0 °F 88.4 °F 70.0 °F 63% 29.97 in 10.0 mi South 11.5 mph 19.6 mph N/A   Scattered Clouds
11:55 AM 87.1 °F 92.8 °F 71.1 °F 59% 29.97 in 10.0 mi South 11.5 mph - N/A   Scattered Clouds
12:55 PM 87.1 °F 92.8 °F 71.1 °F 59% 29.96 in 10.0 mi South 8.1 mph - N/A   Scattered Clouds
1:55 PM 87.1 °F 92.0 °F 70.0 °F 57% 29.96 in 10.0 mi South 9.2 mph - N/A   Mostly Cloudy
2:55 PM 87.1 °F 92.0 °F 70.0 °F 57% 29.95 in 10.0 mi South 8.1 mph - N/A   Scattered Clouds
3:55 PM 86.0 °F 90.1 °F 69.1 °F 57% 29.93 in 10.0 mi SSE 11.5 mph - N/A   Scattered Clouds
4:55 PM 84.9 °F 88.8 °F 69.1 °F 59% 29.91 in 10.0 mi SSE 9.2 mph - N/A   Scattered Clouds
5:55 PM 84.0 °F 87.8 °F 69.1 °F 61% 29.88 in 10.0 mi SE 11.5 mph - N/A   Partly Cloudy
6:55 PM 82.0 °F 85.5 °F 69.1 °F 65% 29.86 in 10.0 mi SSE 12.7 mph - N/A   Partly Cloudy
7:55 PM 80.1 °F 83.2 °F 70.0 °F 71% 29.87 in 10.0 mi SSE 8.1 mph - N/A   Scattered Clouds
8:55 PM 79.0 °F - 70.0 °F 74% 29.88 in 10.0 mi South 10.4 mph - N/A   Partly Cloudy
9:55 PM 78.1 °F - 71.1 °F 79% 29.92 in 10.0 mi South 4.6 mph - N/A   Partly Cloudy
10:55 PM 78.1 °F - 71.1 °F 79% 29.93 in 10.0 mi South 8.1 mph - N/A   Partly Cloudy